FENGYUN 1C DEB

Satellite information

Favourite Embed

Satellite Type and Status

DEBRISIN ORBIT

Key statistics

Satellite FENGYUN 1C DEB at a glance.

Uptime

9553

Days in orbit

Revolutions

≈ 14.3

Per day

Orbit

SSO

Sun Synchronous Orbit

Inclination

98.7

Latest

Satellite identification and parameters

Extended collection of information and parameters for FENGYUN 1C DEB.

Object identification

Identified? True

Debris? True

Object name: FENGYUN 1C DEB

International designator: 1999-025BSX

Object number (NORAD): 31411

Object ID (CCSDS): 31411

Country: PEOPLES REPUBLIC OF CHINA (PRC)

Current information (Y/N): Y

RCS size: SMALL

Orbital parameters

Period: 100.871 minutes

Inclination: 98.6883 deg

SMA: 7178.018 km

Apoapsis: 873.301 km

Periapsis: 726.466 km

RAAN: 245.7383 deg

Eccentricy: 0.0102281

Argument of periapsis: 12.817 deg

Mean anomaly: 47.071 deg

Mean motion: 14.27565145 rev/day

Mean motion (dot): 0.000006 rev/day2

B* drag term: 0.00024767 1/REarth

Two-line elements (TLE)

Creation date: July 2, 2025, 5:47 p.m.

Reference frame: TEME

Reference center: EARTH

Epoch: July 2, 2025, 9:42 a.m. UTC

TLE line 0: 0 FENGYUN 1C DEB

TLE line 1: 1 31411U 99025BSX 25183.40473558 .00000600 00000-0 24767-3 0 9995

TLE line 2: 2 31411 98.6883 245.7383 0102281 12.8170 47.0710 14.27565145921493

Live tracking on map

Real-time ground track for satellite FENGYUN 1C DEB.

In-orbit conjunctions

A list of the most updated potential collisions computed for object FENGYUN 1C DEB.

Target Orbit TCA Probability of collision Miss distance Type
PSLV R/B SSO 2025-05-04 22:56:51 0.000277567 467.0 (m) ROCKET BODY
CZ-6A DEB LEO 2024-10-16 05:36:04 0.0002154719 678.0 (m) DEBRIS
METEOR 1-19 LEO 2024-10-08 14:30:16 0.0002441664 425.0 (m) PAYLOAD

Associated space launch

Chinese polar orbiting meteorological satellite

FENGYUN 1C DEB was lifted into orbit during the mission ‘Long March 4B | Feng Yun 1C’, on board a Long March 4B space rocket.

The launch took place on May 10, 1999, 1:33 a.m. from Launch Complex 7.

For more information about the launch, click the button.

Launch to space Long March 4B | Feng Yun 1C
Long March 4B | Feng Yun 1C

Agency: N/A

Status: Launch Successful

Launch date: May 10, 1999, 1:33 a.m. UTC

Rocket: Long March 4B

Launch pad: Launch Complex 7

Location: Taiyuan Satellite Launch Center, People's Republic of China

...

Latest news about this satellite

There are no fresh news available about this satellite. Check back as we update our databases every day.


Newsletter sign-up

Weekly statistics, charts and insights to help you stay on top of the space industry.